Location: Marcé
(47.5801°N, 0.3280°W)
Time: 12:07:43
(UTC+01:00)

deb Explorer IX - Pass Details

Date: 01 December 2021
Orbit: 544 x 1082 km, 38.8° (Epoch: 17 January)

Event Time Altitude Azimuth Distance (km) Brightness Sun altitude
Rises 15:54:28 0° 258° (WSW) 2,702 ? 9.2°
Reaches altitude 10° 15:57:11 10° 240° (WSW) 1,804 ? 8.9°
Maximum altitude 16:00:05 19° 194° (SSW) 1,347 ? 8.5°
Drops below altitude 10° 16:03:04 10° 149° (SSE) 1,858 ? 8.2°
Sets 16:05:55 0° 131° (SE) 2,815 ? 7.8°
